Home   Weather   St. Petersburg   Past weeks

Flag for USA Past Weather in St. Petersburg, Florida, USA — Yesterday and Last 2 Weeks

Now
65 °F

Clear.


Feels Like: 65 °F
Forecast: 64 / 75 °F
Wind: 5 mph from South

Location: Whitted Airport

Current Time: Jan 20, 2017 at 7:19:56 am

Latest Report: Jan 20, 2017 at 5:53 am


Visibility: 10 mi

Pressure: 29.95 "Hg

Humidity: 97%

Dew Point: 64 °F

Location of St. PetersburgLocation

Past Weather in St. Petersburg — Graph

°F

St. Petersburg Temperature Yesterday

Maximum temperature yesterday: 75 °F (at 1:53 pm)
Minimum temperature yesterday: 61 °F (at 7:34 am)
Average temperature yesterday: 68 °F

High & Low Weather Summary for the Past Weeks

 TemperatureHumidityPressure
High77 °F (Jan 12, 3:53 pm)100% (Jan 6, 7:37 am)30.59 "Hg (Jan 6, 7:37 am)
Low38 °F (Jan 8, 6:53 am)47% (Jan 8, 4:53 pm)29.88 "Hg (Jan 5, 1:53 pm)
Average64 °F82%30.23 "Hg
* Reported Jan 5 5:53 am — Jan 20 5:53 am, St. Petersburg, Weather by CustomWeather, © 2017

Note: Actual official high and low records may vary slightly from our data, if they occured in-between our weather recording intervals... More about our weather records

Advertising

St. Petersburg Weather History for the Previous 24 Hours

Scroll right to see more
 ConditionsComfort  
Time TempWeatherWind HumidityBarometerVisibility
5:53 am
Fri, Jan 20
65 °FClear.5 mph97%29.95 "Hg10 mi
4:53 am66 °FClear.No wind96%29.94 "Hg10 mi
3:53 am66 °FClear.5 mph93%29.95 "Hg10 mi
2:53 am68 °FClear.6 mph87%29.95 "Hg10 mi
1:53 am68 °FClear.6 mph84%29.95 "Hg10 mi
12:53 am68 °FPassing clouds.7 mph84%29.95 "Hg10 mi
11:53 pm
Thu, Jan 19
68 °FPassing clouds.7 mph84%29.96 "Hg10 mi
10:53 pm68 °FClear.5 mph84%29.97 "Hg10 mi
9:53 pm68 °FClear.6 mph82%29.96 "Hg10 mi
8:53 pm69 °FPassing clouds.7 mph76%29.95 "Hg10 mi
7:53 pm68 °FPassing clouds.6 mph84%29.97 "Hg10 mi
6:53 pm69 °FClear.6 mph79%29.97 "Hg10 mi
5:53 pm70 °FSunny.9 mph76%29.97 "Hg10 mi
4:53 pm71 °FSunny.8 mph73%29.97 "Hg10 mi
3:53 pm72 °FSunny.10 mph71%29.97 "Hg10 mi
2:53 pm74 °FSunny.12 mph60%29.97 "Hg10 mi
1:53 pm75 °FSunny.9 mph58%29.99 "Hg10 mi
12:53 pm73 °FSunny.5 mph69%30.02 "Hg10 mi
11:53 am72 °FSunny.No wind64%30.05 "Hg10 mi
10:53 am69 °FSunny.3 mph81%30.08 "Hg10 mi
9:53 am67 °FSunny.6 mph87%30.08 "Hg10 mi
8:53 am64 °FSunny.6 mph100%30.07 "Hg9 mi
8:22 am63 °FFog.No wind100%30.07 "Hg1 mi
7:34 am61 °FFog.3 mph100%30.06 "Hg0 mi
7:01 am62 °FFog.3 mph100%30.06 "Hg0 mi
Weather by CustomWeather, © 2017

See weather overviewHow to use our weather pages